Regional Weather Roundup
Issued by NWS

Home | Current Version | Previous Version | Text Only | Print | Product List | Glossary On
Versions: 1 2 3 4 5 6 7 8 9 10 11 12 13 14 15 16 17 18 19 20 21 22 23 24 25 26 27 28 29 30 31 32 33 34 35 36 37 38 39 40 41 42 43 44 45 46 47 48 49 50
000
ASUS43 KLOT 292103
RWRIL

ILLINOIS REGIONAL WEATHER ROUNDUP
NATIONAL WEATHER SERVICE CHICAGO/ROMEOVILLE IL
400 PM CDT FRI JUL 29 2016

NOTE: "FAIR" INDICATES FEW OR NO CLOUDS BELOW 12,000 FEET WITH NO
SIGNIFICANT WEATHER AND/OR OBSTRUCTIONS TO VISIBILITY.

* THESE STATIONS ARE NOT UNDER NWS QUALITY CONTROL. THEY ALSO MAY NOT
  REPORT WEATHER SUCH AS PRECIPITATION OR FOG.

ILZ001-002-007-009-015-016-024-292200-
NORTHWEST ILLINOIS

CITY           SKY/WX    TMP DP  RH WIND       PRES   REMARKS
MOLINE         PTSUNNY   83  67  58 NW7       29.90F HX  85
STERLING*      PTSUNNY   76  70  82 SE8       29.91S THUNDER
SAVANNA*       CLOUDY    79  68  70 N8        29.91F HX  81
$$

ILZ003-004-008-010-011-017-018-292200-
NORTH CENTRAL ILLINOIS

CITY           SKY/WX    TMP DP  RH WIND       PRES   REMARKS
ROCKFORD       CLOUDY    77  70  79 NE12      29.94S
FREEPORT*      CLOUDY    74  70  85 N9        29.95F
ROCHELLE*      CLOUDY    73  66  78 NE14      29.92F
DE KALB*       CLOUDY    71  69  96 E12       29.95S
$$

ILZ005-006-012>014-019>023-292200-
NORTHEAST ILLINOIS

CITY           SKY/WX    TMP DP  RH WIND       PRES   REMARKS
CHICAGO-OHARE  LGT RAIN  72  69  90 NE8       29.93F FOG
CHICAGO-MIDWAY LGT RAIN  75  71  87 NE9       29.92R FOG
AURORA         PTSUNNY   76  69  79 NE16      29.91F
LANSING*       LGT RAIN  72  67  85 CALM      29.92S
WAUKEGAN       CLOUDY    72  67  84 NE8       29.94F
DUPAGE AIRPORT LGT RAIN  74  71  91 NE10      29.92F FOG
KANKAKEE*      MOSUNNY   85  67  54 N7        29.90R HX  88
WHEELING       LGT RAIN  72  69  90 NE7       29.95S
MORRIS*        TSTM      72  70  93 NE6       29.89S
NORTHERLY ISL    N/A     73  69  87 N9          N/A
$$

LMZ740>746-292200-
SOUTHERN LAKE MICHIGAN

STATION/POSITION SKY/WX   TEMP    WIND        PRES    VSBY  WAVE
                          AIR SEA DIR/SP/G                  HT/PER
                          (F)     (DEG/KT/KT) (MB)    (MI)  (FT/S)
SOUTHERN BUOY              72 74   60/ 16/ 17 1012.9          3/ 5
WILMETTE HARBOR            74 73   60/  8/ 12   N/A           3/ 5
HARRISON CRIB              75      40/  9/  9   N/A
BURNHAM HARBOR             73     340/  8/  9   N/A
CALUMET HARBOR             74     360/  6/  8 1012.6R
BURNS HARBOR               71     210/ 11/ 16 1013.5R
MICHIGAN CITY              68     160/  2/  3   N/A
MICHIGAN CITY 6N           70 77  120/ 12/ 19   N/A           3/ 5
ST. JOSEPH                 77 77  130/  6/  8 1012.5S         2
$$

ILZ025>027-034>036-040-047-049-050-058-095>099-292200-
WEST-CENTRAL ILLINOIS

CITY           SKY/WX    TMP DP  RH WIND       PRES   REMARKS
QUINCY         MOSUNNY   80  68  66 NW9       29.93F HX  83
GALESBURG*     PTSUNNY   78  66  68 W8        29.92F
MACOMB*        PTSUNNY   77  67  72 NW12      29.95F
JACKSONVILLE*  CLOUDY    80  67  64 W9        29.92S HX  83
PITTSFIELD*    CLOUDY    82  69  64 W6        29.94S HX  85
$$

ILZ028>032-037-038-041>044-048-051>054-059>061-292200-
CENTRAL ILLINOIS

CITY           SKY/WX    TMP DP  RH WIND       PRES   REMARKS
BLOOMINGTON    MOSUNNY   81  67  62 W10       29.91F HX  83
DECATUR        MOSUNNY   83  68  60 NW8       29.90F HX  86
PEORIA         MOSUNNY   80  66  62 NW8       29.90F HX  82
LACON*         MOSUNNY   81  67  61 W7        29.89S HX  84
LINCOLN*       PTSUNNY   81  71  69 NW6       29.90S HX  85
SPRINGFIELD    MOSUNNY   83  67  58 NW8       29.91F HX  85
TAYLORVILLE    MOSUNNY   79  69  70 MISG      29.91S HX  82
$$

ILZ033-039-045-046-055>057-062-063-292200-
EAST-CENTRAL ILLINOIS

CITY           SKY/WX    TMP DP  RH WIND       PRES   REMARKS
CHAMPAIGN      MOSUNNY   82  68  62 W9        29.90F HX  85
MATTOON        MOSUNNY   82  67  60 W7        29.90F HX  84
PARIS*         MOSUNNY   83  70  64 W6        29.90F HX  87
$$

ILZ079-100>102-292200-
SOUTHWEST ILLINOIS

CITY           SKY/WX    TMP DP  RH WIND       PRES   REMARKS
ALTON          PTSUNNY   82  70  65 NW10      29.92F HX  86
CAHOKIA*       CLOUDY    87  68  52 W5        29.90F HX  90
SPARTA*        MOSUNNY   84  70  62 N3        29.92F HX  88
$$

ILZ064>066-069>071-074>076-080>082-084>086-088>090-092>094-292200-
SOUTH-CENTRAL ILLINOIS

CITY           SKY/WX    TMP DP  RH WIND       PRES   REMARKS
CARBONDALE     LGT RAIN  74  71  91 S9        29.93S
CAIRO*         MOSUNNY   85  76  76 CALM      29.90S HX  94
EFFINGHAM*     MOSUNNY   82  70  66 W9        29.92S HX  86
MT. VERNON     MOSUNNY   84  72  65 SW5       29.92F HX  89
CENTRALIA*     MOSUNNY   85  73  66 N12       29.90F HX  92
SALEM*         MOSUNNY   85  68  57 NW10      29.91F HX  88
METROPOLIS*    MOSUNNY   87  75  68 NW5       29.92S HX  95
$$

ILZ067-068-072-073-078-083-087-091-292200-
SOUTHEAST ILLINOIS

CITY           SKY/WX    TMP DP  RH WIND       PRES   REMARKS
LAWRENCEVILLE  CLOUDY    79  75  87 CALM        N/A  HX  83
FLORA*         CLOUDY    85  72  64 NW6       29.91F HX  90
FAIRFIELD*     PTSUNNY   78  71  79 S3        29.91S HX  80
HARRISBURG*    CLOUDY    77  73  85 CALM      29.93S
CARMI*         MOSUNNY   76  73  90 CALM      29.92S
$$

ABBREVIATIONS USED IN REMARKS
   TC - TEMPERATURE IN CELSIUS
  WCI - WIND CHILL INDEX
   HX - HEAT INDEX
  VSB - VISIBILITY
$$





USA.gov is the U.S. government's official web portal to all federal, state and local government web resources and services.